EW5196 Weather Reports


time (UTC)temp
C
wind
direction
speed
KPH
gust
KPH
rain 1hr
cm
rain 24hr
cm
rain mn
cm
humidity
%
barometer
mb
20260502212137 16 99 6.4 8.0 0.00 0.10 0.10 38 1013.2
20260502211632 16 200 6.4 6.4 0.00 0.10 0.10 38 1013.4
20260502211129 16 189 1.6 4.8 0.00 0.10 0.10 38 1013.2
20260502210627 15 119 1.6 4.8 0.00 0.10 0.10 37 1013.1
20260502210123 15 165 6.4 6.4 0.00 0.10 0.10 37 1013.0
20260502205620 15 158 4.8 8.0 0.00 0.10 0.10 39 1013.1
20260502205111 15 215 1.6 4.8 0.00 0.10 0.10 40 1013.0
20260502204608 15 103 4.8 4.8 0.00 0.10 0.10 38 1013.1
20260502204106 15 176 4.8 6.4 0.00 0.10 0.10 38 1013.0
20260502203603 16 148 4.8 6.4 0.00 0.10 0.10 39 1013.2
20260502203100 16 158 4.8 4.8 0.00 0.10 0.10 39 1013.2
20260502202555 16 177 4.8 8.0 0.00 0.10 0.10 38 1013.3
20260502202054 16 184 3.2 11.3 0.00 0.10 0.10 35 1013.3
20260502201550 16 119 3.2 6.4 0.00 0.10 0.10 37 1013.4
20260502201047 16 166 1.6 4.8 0.00 0.10 0.10 40 1013.3
20260502200542 16 152 3.2 4.8 0.00 0.10 0.10 36 1013.4
20260502200040 16 184 3.2 12.9 0.00 0.10 0.10 37 1013.3
20260502195538 16 164 4.8 6.4 0.00 0.10 0.10 39 1013.3
20260502195033 16 164 16.1 16.1 0.00 0.10 0.10 37 1013.1
20260502194530 16 258 0.0 8.0 0.00 0.10 0.10 39 1013.5
20260502194026 15 198 1.6 8.0 0.00 0.10 0.10 40 1013.4
20260502193524 16 164 6.4 8.0 0.00 0.10 0.10 38 1013.6
20260502193021 15 188 4.8 6.4 0.00 0.10 0.10 38 1013.6
20260502192516 16 187 1.6 4.8 0.00 0.10 0.10 37 1013.8
20260502192014 16 143 3.2 6.4 0.00 0.10 0.10 37 1013.6
20260502191510 16 214 0.0 4.8 0.00 0.10 0.10 38 1013.8
20260502191008 15 140 4.8 6.4 0.00 0.10 0.10 37 1014.0
20260502190505 16 137 3.2 4.8 0.00 0.10 0.10 36 1013.9
20260502190002 16 171 0.0 8.0 0.00 0.10 0.10 37 1014.0
20260502185457 15 119 4.8 11.3 0.00 0.10 0.10 37 1014.0
20260502184954 16 249 3.2 4.8 0.00 0.10 0.10 38 1014.1
20260502184449 16 206 4.8 6.4 0.00 0.10 0.10 38 1014.4
20260502183947 16 184 6.4 9.7 0.00 0.10 0.10 38 1014.3
20260502183443 16 187 4.8 9.7 0.00 0.10 0.10 39 1014.2
20260502182938 15 153 3.2 6.4 0.00 0.10 0.10 39 1014.2
20260502182434 15 226 6.4 16.1 0.00 0.10 0.10 37 1014.4
20260502181930 15 109 4.8 11.3 0.00 0.10 0.10 37 1014.4
20260502181428 15 166 1.6 4.8 0.00 0.10 0.10 39 1014.7
20260502180926 15 166 4.8 6.4 0.00 0.10 0.10 38 1014.6
20260502180423 15 126 6.4 12.9 0.00 0.10 0.10 40 1014.6
20260502170342 13 152 4.8 6.4 0.66 0.10 0.10 43 1016.0
20260502164330 13 127 3.2 4.8 0.00 0.00 0.00 46 1015.9
20260502163826 13 158 3.2 3.2 0.00 0.00 0.00 45 1015.8
20260502163322 13 123 0.0 4.8 0.00 0.00 0.00 44 1015.9
20260502162820 13 177 0.0 4.8 0.00 0.00 0.00 44 1015.9
20260502162316 13 161 4.8 4.8 0.00 0.00 0.00 43 1015.8
20260502161813 13 114 0.0 4.8 0.00 0.00 0.00 44 1016.1
20260502161303 13 151 3.2 3.2 0.00 0.00 0.00 45 1016.1
20260502160801 13 141 4.8 6.4 0.00 0.00 0.00 43 1016.4
20260502160300 13 111 1.6 6.4 0.00 0.00 0.00 43 1016.1
20260502152229 12 164 3.2 4.8 0.00 0.00 0.00 47 1016.6
20260502151727 12 161 1.6 4.8 0.00 0.00 0.00 48 1016.6
20260502151224 12 136 4.8 4.8 0.00 0.00 0.00 48 1016.2
20260502150721 12 123 4.8 6.4 0.00 0.00 0.00 50 1016.3
20260502150218 12 169 3.2 6.4 0.00 0.00 0.00 49 1016.2
20260502130606 11 239 1.6 9.7 0.00 0.00 0.00 60 1015.7
20260502130104 11 188 1.6 4.8 0.00 0.00 0.00 63 1015.8
20260502123549 11 152 4.8 9.7 0.00 0.00 0.00 65 1015.3
20260502123045 11 153 3.2 3.2 0.00 0.00 0.00 68 1015.4
20260502122542 11 147 4.8 9.7 0.00 0.00 0.00 68 1015.5
20260502122040 11 175 3.2 8.0 0.00 0.00 0.00 69 1015.4
20260502121537 11 144 3.2 4.8 0.00 0.00 0.00 70 1015.6
20260502121035 11 255 0.0 6.4 0.00 0.00 0.00 71 1015.3
20260502120531 11 171 1.6 4.8 0.00 0.00 0.00 71 1015.3
20260502115526 10 137 4.8 4.8 0.00 0.00 0.00 72 1015.1
20260502115021 10 143 1.6 4.8 0.00 0.00 0.00 73 1015.2
20260502114518 10 129 3.2 9.7 0.00 0.00 0.00 73 1015.1
20260502114015 10 149 3.2 4.8 0.00 0.00 0.00 75 1015.4
20260502113513 10 163 1.6 6.4 0.00 0.00 0.00 77 1015.1
20260502113011 10 139 1.6 4.8 0.00 0.00 0.00 81 1015.2
20260502112509 10 140 4.8 4.8 0.00 0.00 0.00 84 1015.3
20260502112006 9 142 1.6 4.8 0.00 0.00 0.00 89 1015.3
20260502111503 9 140 1.6 3.2 0.00 0.00 0.00 91 1015.2
20260502111000 8 150 1.6 3.2 0.00 0.00 0.00 92 1015.5
20260502110458 8 148 3.2 3.2 0.00 0.00 0.00 93 1015.4
20260502105955 8 152 3.2 3.2 0.00 0.00 0.00 93 1015.3
20260502105453 8 157 3.2 3.2 0.00 0.00 0.00 94 1015.3
20260502104950 8 152 1.6 3.2 0.00 0.00 0.00 93 1015.3
20260502104447 8 154 1.6 3.2 0.00 0.00 0.00 93 1015.3
20260502103944 8 161 1.6 3.2 0.00 0.00 0.00 94 1015.2
20260502103442 8 148 1.6 3.2 0.00 0.00 0.00 94 1015.0
20260502102938 8 157 3.2 3.2 0.00 0.00 0.00 94 1015.2
20260502102436 8 151 3.2 3.2 0.00 0.00 0.00 94 1015.2
20260502101932 8 154 1.6 3.2 0.00 0.00 0.00 94 1015.0
20260502101431 8 151 3.2 3.2 0.00 0.00 0.00 94 1015.0
20260502100929 8 145 1.6 3.2 0.00 0.00 0.00 94 1014.8
20260502100428 8 137 1.6 3.2 0.00 0.00 0.00 94 1014.6
20260502091402 8 154 1.6 3.2 0.00 0.00 0.00 94 1014.6
20260502090859 8 157 1.6 3.2 0.00 0.00 0.00 93 1014.5
20260502090355 8 143 1.6 3.2 0.00 0.00 0.00 93 1014.6
20260502071251 10 165 1.6 3.2 0.00 0.00 0.00 87 1014.0
20260502070749 10 147 3.2 3.2 0.00 0.00 0.00 87 1013.9
20260502070246 10 150 1.6 3.2 0.00 0.00 0.00 86 1014.0
20260502065745 10 148 3.2 3.2 0.00 0.00 0.00 85 1014.1
20260502065242 10 138 1.6 3.2 0.00 0.00 0.00 85 1013.9
20260502064741 10 155 3.2 3.2 0.00 0.00 0.00 85 1014.0
20260502064238 10 137 1.6 3.2 0.00 0.00 0.00 84 1014.0
20260502063735 10 152 3.2 3.2 0.00 0.00 0.00 85 1013.9
20260502063233 11 151 3.2 3.2 0.00 0.00 0.00 84 1013.9
20260502062730 11 151 3.2 3.2 0.00 0.00 0.00 83 1013.9
20260502062228 11 152 1.6 3.2 0.00 0.00 0.00 83 1014.0
20260502061726 11 160 3.2 4.8 0.00 0.00 0.00 81 1013.8
20260502061223 11 150 1.6 3.2 0.00 0.00 0.00 80 1014.2
20260502060718 11 146 3.2 3.2 0.00 0.00 0.00 79 1014.0
20260502060214 11 145 3.2 3.2 0.00 0.00 0.00 78 1014.0
20260502055713 11 154 3.2 4.8 0.00 0.00 0.00 78 1014.1
20260502055210 11 146 3.2 3.2 0.00 0.00 0.00 78 1014.3
20260502054709 11 141 3.2 3.2 0.00 0.00 0.00 78 1014.4
20260502054206 11 147 3.2 3.2 0.00 0.00 0.00 79 1014.5
20260502053703 12 146 3.2 3.2 0.00 0.00 0.00 79 1014.5
20260502053201 12 142 1.6 3.2 0.00 0.00 0.00 79 1014.4
20260502052659 12 158 3.2 3.2 0.00 0.00 0.00 76 1014.4
20260502052157 12 154 3.2 3.2 0.00 0.00 0.00 76 1014.1
20260502051654 12 155 3.2 3.2 0.00 0.00 0.00 76 1014.2
20260502051152 12 155 3.2 3.2 0.00 0.00 0.00 75 1014.1
20260502050642 12 161 3.2 4.8 0.00 0.00 0.00 75 1014.1
20260502050139 12 162 3.2 4.8 0.00 0.00 0.00 75 1014.2
20260502045636 12 166 3.2 4.8 0.00 0.00 0.00 74 1014.1
20260502045133 12 149 3.2 3.2 0.00 0.00 0.00 73 1014.3
20260502044629 12 154 3.2 4.8 0.00 0.00 0.00 73 1014.2
20260502044126 12 164 3.2 4.8 0.00 0.00 0.00 73 1014.4
20260502043624 12 169 3.2 4.8 0.00 0.00 0.00 72 1014.3
20260502043115 12 165 4.8 4.8 0.00 0.00 0.00 73 1014.4
20260502042614 12 144 3.2 4.8 0.00 0.00 0.00 72 1014.6
20260502042112 12 145 3.2 4.8 0.00 0.00 0.00 72 1014.5
20260502041610 12 142 3.2 4.8 0.00 0.00 0.00 71 1014.5
20260502041107 13 150 3.2 4.8 0.00 0.00 0.00 71 1014.4
20260502040603 13 155 4.8 4.8 0.00 0.00 0.00 71 1014.4
20260502040101 13 142 3.2 4.8 0.00 0.00 0.00 71 1014.2
20260502035556 13 166 4.8 4.8 0.00 0.00 0.00 70 1014.4
20260502035054 13 171 4.8 4.8 0.00 0.00 0.00 70 1014.4
20260502034551 13 137 3.2 4.8 0.00 0.00 0.00 69 1014.1
20260502034050 13 169 3.2 4.8 0.00 0.00 0.00 68 1014.2
20260502033548 13 159 3.2 4.8 0.00 0.00 0.00 68 1014.2
20260502033045 13 165 3.2 4.8 0.00 0.00 0.00 68 1014.3
20260502032541 13 173 1.6 4.8 0.00 0.00 0.00 68 1014.2
20260502032037 13 175 3.2 4.8 0.00 0.00 0.00 67 1014.1
20260502031536 13 168 3.2 4.8 0.00 0.00 0.00 67 1013.8
20260502031033 13 159 3.2 3.2 0.00 0.00 0.00 66 1014.1
20260502030532 13 167 3.2 4.8 0.00 0.00 0.00 65 1013.9
20260502030029 13 170 4.8 4.8 0.00 0.00 0.00 65 1013.8
20260502025526 13 156 3.2 4.8 0.00 0.00 0.00 67 1013.6
20260502025025 14 168 3.2 3.2 0.00 0.00 0.00 65 1013.8
20260502024521 14 161 3.2 3.2 0.00 0.00 0.00 65 1013.7
20260502024020 14 168 4.8 4.8 0.00 0.00 0.00 64 1013.8
20260502023517 14 138 3.2 3.2 0.00 0.00 0.00 64 1013.7
20260502023014 14 169 4.8 4.8 0.00 0.00 0.00 64 1013.6
20260502022511 14 164 3.2 4.8 0.00 0.00 0.00 65 1013.8
20260502022008 13 157 3.2 4.8 0.00 0.00 0.00 66 1014.0
20260502021505 13 169 3.2 4.8 0.00 0.00 0.00 67 1014.0
20260502021002 13 170 3.2 4.8 0.00 0.00 0.00 69 1013.9
20260502020500 13 168 3.2 3.2 0.00 0.00 0.00 67 1013.8
20260502015956 13 156 3.2 3.2 0.00 0.00 0.00 65 1013.9
20260502015455 13 139 6.4 6.4 0.00 0.00 0.00 65 1013.7
20260502014950 13 144 3.2 3.2 0.00 0.00 0.00 69 1013.8
20260502014448 13 161 3.2 3.2 0.00 0.00 0.00 74 1013.7
20260502013944 13 150 3.2 3.2 0.00 0.00 0.00 73 1013.8
20260502013440 13 150 3.2 3.2 0.00 0.00 0.00 73 1013.8
20260502012936 13 151 3.2 3.2 0.00 0.00 0.00 71 1013.4
20260502012434 13 153 3.2 3.2 0.00 0.00 0.00 68 1013.4
20260502011932 14 156 3.2 3.2 0.00 0.00 0.00 68 1013.2
20260502011427 14 157 3.2 3.2 0.00 0.00 0.00 66 1013.3
20260502010925 14 161 3.2 3.2 0.00 0.00 0.00 67 1013.4
20260502010421 15 169 3.2 4.8 0.00 0.00 0.00 63 1013.4
20260502005917 15 153 3.2 3.2 0.00 0.00 0.00 61 1013.3
20260502005416 15 139 3.2 3.2 0.00 0.00 0.00 54 1013.1
20260502004914 15 149 3.2 3.2 0.00 0.00 0.00 54 1013.2
20260502004409 15 147 3.2 3.2 0.00 0.00 0.00 53 1012.8
20260502003907 15 151 3.2 3.2 0.00 0.00 0.00 53 1012.7
20260502003404 16 151 3.2 4.8 0.00 0.00 0.00 51 1012.6
20260502002900 16 166 4.8 4.8 0.00 0.00 0.00 49 1012.5
20260502002358 16 164 3.2 4.8 0.00 0.00 0.00 49 1012.5
20260502001854 16 160 4.8 4.8 0.00 0.00 0.00 47 1012.3
20260502001352 16 166 3.2 3.2 0.00 0.00 0.00 48 1012.6
20260502000849 16 166 3.2 4.8 0.00 0.00 0.00 50 1012.6
20260502000348 17 166 3.2 4.8 0.00 0.00 0.00 46 1012.7
20260501235843 17 160 3.2 3.2 0.00 0.00 0.00 49 1012.6
20260501235339 17 173 3.2 4.8 0.00 0.00 0.00 45 1012.8
20260501234834 17 157 3.2 4.8 0.00 0.00 0.00 44 1012.3
20260501234332 17 177 4.8 4.8 0.00 0.00 0.00 43 1012.5
20260501233830 17 175 3.2 4.8 0.00 0.00 0.00 43 1012.5
20260501233327 18 161 4.8 4.8 0.00 0.00 0.00 44 1012.5
20260501232823 18 156 3.2 4.8 0.00 0.00 0.00 43 1012.3
20260501232320 18 164 3.2 3.2 0.00 0.00 0.00 42 1012.3
20260501231818 18 160 3.2 4.8 0.00 0.00 0.00 41 1012.1
20260501231316 18 180 3.2 4.8 0.00 0.00 0.00 39 1012.2
20260501230814 18 182 4.8 4.8 0.00 0.00 0.00 38 1012.1
20260501230312 18 174 3.2 6.4 0.00 0.00 0.00 37 1012.2
20260501225809 18 136 3.2 6.4 0.00 0.00 0.00 38 1012.3
20260501225307 19 170 4.8 6.4 0.00 0.00 0.00 37 1012.2
20260501224803 19 183 3.2 6.4 0.00 0.00 0.00 37 1012.3
20260501224301 19 173 3.2 4.8 0.00 0.00 0.00 36 1012.5
20260501223756 19 173 4.8 4.8 0.00 0.00 0.00 38 1012.4
20260501223253 20 175 3.2 4.8 0.00 0.00 0.00 38 1012.7
20260501222749 20 171 3.2 4.8 0.00 0.00 0.00 36 1012.5
20260501222246 20 166 3.2 4.8 0.00 0.00 0.00 36 1012.6
20260501221743 20 170 8.0 8.0 0.00 0.00 0.00 34 1012.5
20260501221240 21 163 4.8 8.0 0.00 0.00 0.00 34 1012.6
20260501220738 21 165 4.8 4.8 0.00 0.00 0.00 33 1012.6
20260501220235 21 186 3.2 4.8 0.00 0.00 0.00 33 1012.7
20260501215732 21 188 4.8 4.8 0.00 0.00 0.00 35 1012.6
20260501215227 21 187 4.8 4.8 0.00 0.00 0.00 32 1012.6
20260501214723 20 165 3.2 4.8 0.00 0.00 0.00 32 1012.7
20260501214219 20 182 4.8 6.4 0.00 0.00 0.00 33 1012.8
20260501213715 20 174 6.4 8.0 0.00 0.00 0.00 33 1012.7
20260501213212 20 164 4.8 6.4 0.00 0.00 0.00 34 1012.6
20260501212708 20 177 4.8 4.8 0.00 0.00 0.00 33 1012.4
20260501212204 20 180 4.8 4.8 0.00 0.00 0.00 33 1012.6